,,,PA_Meas_PMT16A,,PR_Meas_QMR101_102,,RH_Meas_QMH101,,SR_Meas_QMS101,,TA_Meas_QMH101,,GenWind,,GenWind,
date,time,status,PA,status,PR,status,RH,status,SR,status,TA,status,DirAvg,status,SpdAvg,
2009-07-26, 00:00:04,VALID,1003.61,VALID,0,VALID,79.8439,VALID,0,VALID,26.7219,VALID,302,VALID,0.611328,
2009-07-26, 00:01:04,VALID,1003.62,VALID,0,VALID,79.7294,VALID,0,VALID,26.7024,VALID,212,VALID,0.682422,
2009-07-26, 00:02:04,VALID,1003.63,VALID,0,VALID,79.7065,VALID,0,VALID,26.685,VALID,217,VALID,0.698828,
2009-07-26, 00:03:04,VALID,1003.62,VALID,0,VALID,79.6379,VALID,0,VALID,26.7239,VALID,281,VALID,1.53555,
2009-07-26, 00:04:04,VALID,1003.58,VALID,0,VALID,79.5006,VALID,0,VALID,26.7024,VALID,201,VALID,0.417578,
2009-07-26, 00:05:04,VALID,1003.59,VALID,0,VALID,79.8286,VALID,0,VALID,26.7434,VALID,271,VALID,0.785937,
2009-07-26, 00:06:04,VALID,1003.56,VALID,0,VALID,79.5921,VALID,0,VALID,26.683,VALID,221,VALID,1.87656,
2009-07-26, 00:07:04,VALID,1003.61,VALID,0,VALID,79.5997,VALID,0,VALID,26.7239,VALID,239,VALID,0.664453,
2009-07-26, 00:08:04,VALID,1003.58,VALID,0,VALID,79.6684,VALID,0,VALID,26.7024,VALID,24,VALID,0.852344,
2009-07-26, 00:09:04,VALID,1003.61,VALID,0,VALID,79.8896,VALID,0,VALID,26.6635,VALID,269,VALID,0.929297,
2009-07-26, 00:10:04,VALID,1003.61,VALID,0,VALID,79.9049,VALID,0,VALID,26.685,VALID,267,VALID,0.606641,
2009-07-26, 00:11:04,VALID,1003.6,VALID,0,VALID,80.088,VALID,0,VALID,26.6655,VALID,168,VALID,0.574219,
2009-07-26, 00:12:04,VALID,1003.62,VALID,0,VALID,80.2024,VALID,0,VALID,26.646,VALID,34,VALID,0.398828,
2009-07-26, 00:13:04,VALID,1003.61,VALID,0,VALID,80.4008,VALID,0,VALID,26.605,VALID,4,VALID,0.615234,
2009-07-26, 00:14:04,VALID,1003.61,VALID,0,VALID,80.4771,VALID,0,VALID,26.5855,VALID,227,VALID,0.667188,
2009-07-26, 00:15:04,VALID,1003.57,VALID,0,VALID,80.7212,VALID,0,VALID,26.5855,VALID,212,VALID,0.598437,
2009-07-26, 00:16:04,VALID,1003.56,VALID,0,VALID,80.8585,VALID,0,VALID,26.5876,VALID,105,VALID,0.618359,
2009-07-26, 00:17:04,VALID,1003.54,VALID,0,VALID,80.7441,VALID,0,VALID,26.607,VALID,210,VALID,0.994141,
2009-07-26, 00:18:04,VALID,1003.55,VALID,0,VALID,80.9119,VALID,0,VALID,26.5855,VALID,235,VALID,1.15703,
2009-07-26, 00:19:04,VALID,1003.53,VALID,0,VALID,80.9195,VALID,0,VALID,26.605,VALID,195,VALID,0.176172,
2009-07-26, 00:20:04,VALID,1003.5,VALID,0,VALID,80.9577,VALID,0,VALID,26.605,VALID,210,VALID,1.54414,
2009-07-26, 00:21:04,VALID,1003.52,VALID,0,VALID,81.1255,VALID,0,VALID,26.5855,VALID,207,VALID,0.697656,
2009-07-26, 00:22:04,VALID,1003.51,VALID,0,VALID,81.0569,VALID,0,VALID,26.5855,VALID,281,VALID,1.07422,
2009-07-26, 00:23:04,VALID,1003.48,VALID,0,VALID,81.1942,VALID,0,VALID,26.6265,VALID,193,VALID,0.605469,
2009-07-26, 00:24:04,VALID,1003.47,VALID,0,VALID,81.3086,VALID,0,VALID,26.5855,VALID,202,VALID,0.320703,
2009-07-26, 00:25:04,VALID,1003.44,VALID,0,VALID,81.4154,VALID,0,VALID,26.5661,VALID,209,VALID,0.945313,
2009-07-26, 00:26:04,VALID,1003.47,VALID,0,VALID,81.4459,VALID,0,VALID,26.5466,VALID,35,VALID,0.326562,
2009-07-26, 00:27:04,VALID,1003.45,VALID,0,VALID,81.4841,VALID,0,VALID,26.5466,VALID,329,VALID,0.639844,
2009-07-26, 00:28:04,VALID,1003.4,VALID,0,VALID,81.301,VALID,0,VALID,26.5466,VALID,214,VALID,1.20547,
2009-07-26, 00:29:04,VALID,1003.4,VALID,0,VALID,81.4764,VALID,0,VALID,26.5466,VALID,205,VALID,0.178906,
2009-07-26, 00:30:04,VALID,1003.42,VALID,0,VALID,81.5146,VALID,0,VALID,26.5271,VALID,148,VALID,0.619922,
2009-07-26, 00:31:04,VALID,1003.43,VALID,0,VALID,81.7511,VALID,0,VALID,26.5466,VALID,206,VALID,0.735156,
2009-07-26, 00:32:04,VALID,1003.39,VALID,0,VALID,81.7663,VALID,0,VALID,26.5466,VALID,222,VALID,0.596875,
2009-07-26, 00:33:04,VALID,1003.38,VALID,0,VALID,81.835,VALID,0,VALID,26.5466,VALID,211,VALID,0.34375,
2009-07-26, 00:34:04,VALID,1003.37,VALID,0,VALID,81.9494,VALID,0,VALID,26.5271,VALID,179,VALID,0.527344,
2009-07-26, 00:35:04,VALID,1003.37,VALID,0,VALID,82.0562,VALID,0,VALID,26.5291,VALID,182,VALID,0.193359,
2009-07-26, 00:36:04,VALID,1003.34,VALID,0,VALID,82.0944,VALID,0,VALID,26.4881,VALID,127,VALID,0.490625,
2009-07-26, 00:37:04,VALID,1003.31,VALID,0,VALID,81.9647,VALID,0,VALID,26.5076,VALID,241,VALID,0.440625,
2009-07-26, 00:38:04,VALID,1003.28,VALID,0,VALID,81.896,VALID,0,VALID,26.5076,VALID,278,VALID,0.301953,
2009-07-26, 00:39:04,VALID,1003.26,VALID,0,VALID,81.8121,VALID,0,VALID,26.5076,VALID,213,VALID,0.583203,
2009-07-26, 00:40:04,VALID,1003.22,VALID,0,VALID,81.5146,VALID,0,VALID,26.5076,VALID,234,VALID,1.54375,
2009-07-26, 00:41:04,VALID,1003.21,VALID,0,VALID,81.423,VALID,0,VALID,26.5466,VALID,220,VALID,0.832812,
2009-07-26, 00:42:04,VALID,1003.2,VALID,0,VALID,81.507,VALID,0,VALID,26.5661,VALID,206,VALID,1.12578,
2009-07-26, 00:43:04,VALID,1003.21,VALID,0,VALID,81.4078,VALID,0,VALID,26.5661,VALID,245,VALID,0.078125,
2009-07-26, 00:44:04,VALID,1003.17,VALID,0,VALID,81.507,VALID,0,VALID,26.5661,VALID,179,VALID,0.576953,
2009-07-26, 00:45:04,VALID,1003.17,VALID,0,VALID,81.1713,VALID,0,VALID,26.5661,VALID,250,VALID,1.41055,
2009-07-26, 00:46:04,VALID,1003.13,VALID,0,VALID,80.9348,VALID,0,VALID,26.5446,VALID,268,VALID,0.923047,
2009-07-26, 00:47:04,VALID,1003.15,VALID,0,VALID,80.889,VALID,0,VALID,26.5855,VALID,192,VALID,1.12422,
2009-07-26, 00:48:04,VALID,1003.16,VALID,0,VALID,80.4923,VALID,0,VALID,26.5855,VALID,271,VALID,1.15117,
2009-07-26, 00:49:04,VALID,1003.1,VALID,0,VALID,80.2711,VALID,0,VALID,26.6245,VALID,150,VALID,0.726953,
2009-07-26, 00:50:04,VALID,1003.11,VALID,0,VALID,80.149,VALID,0,VALID,26.6245,VALID,292,VALID,0.620703,
2009-07-26, 00:51:04,VALID,1003.06,VALID,0,VALID,80.3397,VALID,0,VALID,26.644,VALID,228,VALID,0.375,
2009-07-26, 00:52:04,VALID,1003.1,VALID,0,VALID,80.5152,VALID,0,VALID,26.6245,VALID,230,VALID,0.588281,
2009-07-26, 00:53:04,VALID,1003.1,VALID,0,VALID,80.683,VALID,0,VALID,26.6245,VALID,158,VALID,0.769922,
2009-07-26, 00:54:04,VALID,1003.07,VALID,0,VALID,80.4313,VALID,0,VALID,26.603,VALID,222,VALID,1.04414,
2009-07-26, 00:55:04,VALID,1003.06,VALID,0,VALID,80.5152,VALID,0,VALID,26.644,VALID,225,VALID,0.859766,
2009-07-26, 00:56:04,VALID,1003.03,VALID,0,VALID,80.6144,VALID,0,VALID,26.644,VALID,179,VALID,0.882422,
2009-07-26, 00:57:04,VALID,1003.03,VALID,0,VALID,80.6678,VALID,0,VALID,26.6635,VALID,214,VALID,1.33945,
2009-07-26, 00:58:04,VALID,1003.02,VALID,0,VALID,80.6754,VALID,0,VALID,26.6809,VALID,227,VALID,0.573828,
2009-07-26, 00:59:04,VALID,1003.02,VALID,0,VALID,80.9119,VALID,0,VALID,26.7219,VALID,219,VALID,0.974219,
2009-07-26, 01:00:04,VALID,1003.02,VALID,0,VALID,81.0111,VALID,0,VALID,26.7004,VALID,250,VALID,0.457812,
2009-07-26, 01:01:04,VALID,1002.98,VALID,0,VALID,80.9882,VALID,0,VALID,26.6809,VALID,208,VALID,0.576563,
2009-07-26, 01:02:04,VALID,1002.95,VALID,0,VALID,80.8051,VALID,0.100563,VALID,26.6614,VALID,218,VALID,0.717969,
2009-07-26, 01:03:04,VALID,1002.98,VALID,0,VALID,80.6678,VALID,0,VALID,26.6614,VALID,209,VALID,0.666797,
2009-07-26, 01:04:04,VALID,1002.95,VALID,0,VALID,80.3245,VALID,0.100563,VALID,26.6594,VALID,219,VALID,1.44219,
2009-07-26, 01:05:04,VALID,1002.97,VALID,0,VALID,80.5991,VALID,0,VALID,26.7024,VALID,192,VALID,0.484766,
2009-07-26, 01:06:04,VALID,1002.96,VALID,0,VALID,80.7059,VALID,0.100563,VALID,26.6399,VALID,201,VALID,0.79375,
2009-07-26, 01:07:04,VALID,1002.97,VALID,0,VALID,80.7898,VALID,0.100563,VALID,26.642,VALID,166,VALID,0.704687,
2009-07-26, 01:08:04,VALID,1002.96,VALID,0,VALID,80.6754,VALID,0.100563,VALID,26.6635,VALID,204,VALID,1.70117,
2009-07-26, 01:09:04,VALID,1002.95,VALID,0,VALID,80.5076,VALID,0.100563,VALID,26.6594,VALID,199,VALID,1.80625,
2009-07-26, 01:10:04,VALID,1002.94,VALID,0,VALID,80.3092,VALID,0.100563,VALID,26.6809,VALID,217,VALID,0.672656,
2009-07-26, 01:11:04,VALID,1002.95,VALID,0,VALID,80.416,VALID,0,VALID,26.6614,VALID,157,VALID,0.282422,
2009-07-26, 01:12:04,VALID,1002.92,VALID,0,VALID,80.4923,VALID,0.100563,VALID,26.6809,VALID,40,VALID,0.516016,
2009-07-26, 01:13:04,VALID,1002.9,VALID,0,VALID,80.5076,VALID,0,VALID,26.6635,VALID,175,VALID,0.943359,
2009-07-26, 01:14:04,VALID,1002.88,VALID,0,VALID,80.4771,VALID,0,VALID,26.642,VALID,202,VALID,0.824219,
2009-07-26, 01:15:04,VALID,1002.85,VALID,0,VALID,80.683,VALID,0,VALID,26.6614,VALID,233,VALID,0.314453,
2009-07-26, 01:16:04,VALID,1002.84,VALID,0,VALID,80.7059,VALID,0,VALID,26.683,VALID,182,VALID,0.327734,
2009-07-26, 01:17:04,VALID,1002.84,VALID,0,VALID,80.6602,VALID,0,VALID,26.683,VALID,212,VALID,0.861719,
2009-07-26, 01:18:04,VALID,1002.83,VALID,0,VALID,80.6983,VALID,0,VALID,26.7024,VALID,209,VALID,0.948047,
2009-07-26, 01:19:04,VALID,1002.8,VALID,0,VALID,80.767,VALID,0,VALID,26.683,VALID,172,VALID,0.609766,
2009-07-26, 01:20:04,VALID,1002.78,VALID,0,VALID,80.9577,VALID,0,VALID,26.685,VALID,257,VALID,0.358594,
2009-07-26, 01:21:04,VALID,1002.79,VALID,0,VALID,81.034,VALID,0,VALID,26.685,VALID,234,VALID,1.29609,
2009-07-26, 01:22:04,VALID,1002.79,VALID,0,VALID,81.2705,VALID,0,VALID,26.6245,VALID,218,VALID,0.533594,
2009-07-26, 01:23:04,VALID,1002.77,VALID,0,VALID,81.301,VALID,0,VALID,26.644,VALID,197,VALID,0.250781,
2009-07-26, 01:24:04,VALID,1002.71,VALID,0,VALID,81.3086,VALID,0,VALID,26.6245,VALID,238,VALID,0.592969,
2009-07-26, 01:25:04,VALID,1002.75,VALID,0,VALID,81.4688,VALID,0,VALID,26.6245,VALID,180,VALID,0.45,
2009-07-26, 01:26:04,VALID,1002.73,VALID,0,VALID,81.6519,VALID,0,VALID,26.646,VALID,179,VALID,0.392188,
2009-07-26, 01:27:04,VALID,1002.72,VALID,0,VALID,81.8274,VALID,0,VALID,26.6245,VALID,227,VALID,0.636328,
2009-07-26, 01:28:04,VALID,1002.68,VALID,0,VALID,81.896,VALID,0,VALID,26.605,VALID,233,VALID,0.245312,
2009-07-26, 01:29:04,VALID,1002.68,VALID,0,VALID,81.8808,VALID,0,VALID,26.5661,VALID,154,VALID,0.530859,
2009-07-26, 01:30:04,VALID,1002.7,VALID,0,VALID,81.8579,VALID,0,VALID,26.5466,VALID,273,VALID,0.326172,
2009-07-26, 01:31:04,VALID,1002.66,VALID,0,VALID,81.507,VALID,0,VALID,26.5466,VALID,167,VALID,0.549609,
2009-07-26, 01:32:04,VALID,1002.66,VALID,0,VALID,81.507,VALID,0,VALID,26.5466,VALID,135,VALID,0.460156,
2009-07-26, 01:33:04,VALID,1002.66,VALID,0,VALID,81.6061,VALID,0,VALID,26.5466,VALID,120,VALID,0.282031,
2009-07-26, 01:34:04,VALID,1002.66,VALID,0,VALID,81.4536,VALID,0,VALID,26.5291,VALID,235,VALID,1.39844,
2009-07-26, 01:35:04,VALID,1002.65,VALID,0,VALID,81.5222,VALID,0,VALID,26.5466,VALID,232,VALID,1.30859,
2009-07-26, 01:36:04,VALID,1002.63,VALID,0,VALID,81.2171,VALID,0,VALID,26.5661,VALID,302,VALID,0.536328,
2009-07-26, 01:37:04,VALID,1002.64,VALID,0,VALID,81.1713,VALID,0,VALID,26.5855,VALID,171,VALID,0.445703,
2009-07-26, 01:38:04,VALID,1002.63,VALID,0,VALID,81.0797,VALID,0,VALID,26.605,VALID,117,VALID,0.302734,
2009-07-26, 01:39:04,VALID,1002.64,VALID,0,VALID,80.9501,VALID,0,VALID,26.6245,VALID,317,VALID,0.819531,
2009-07-26, 01:40:04,VALID,1002.63,VALID,0,VALID,80.8509,VALID,0,VALID,26.6245,VALID,207,VALID,0.501172,
2009-07-26, 01:41:04,VALID,1002.65,VALID,0,VALID,80.9119,VALID,0,VALID,26.6245,VALID,203,VALID,0.909766,
2009-07-26, 01:42:04,VALID,1002.64,VALID,0,VALID,81.0874,VALID,0,VALID,26.6245,VALID,200,VALID,0.594531,
2009-07-26, 01:43:04,VALID,1002.68,VALID,0,VALID,81.2018,VALID,0,VALID,26.6245,VALID,249,VALID,0.242969,
2009-07-26, 01:44:04,VALID,1002.61,VALID,0,VALID,81.2857,VALID,0,VALID,26.5855,VALID,245,VALID,0.481641,
2009-07-26, 01:45:04,VALID,1002.64,VALID,0,VALID,81.423,VALID,0,VALID,26.5855,VALID,231,VALID,0.119531,
2009-07-26, 01:46:04,VALID,1002.67,VALID,0,VALID,81.6519,VALID,0,VALID,26.5446,VALID,206,VALID,0.20625,
2009-07-26, 01:47:04,VALID,1002.63,VALID,0,VALID,80.1719,VALID,0,VALID,26.5661,VALID,226,VALID,1.0293,
2009-07-26, 01:48:04,VALID,1002.63,VALID,0,VALID,79.9278,VALID,0,VALID,26.6245,VALID,268,VALID,0.1875,
2009-07-26, 01:49:04,VALID,1002.6,VALID,0,VALID,79.7523,VALID,0,VALID,26.6225,VALID,219,VALID,0.473437,
2009-07-26, 01:50:04,VALID,1002.6,VALID,0,VALID,79.8591,VALID,0,VALID,26.6245,VALID,282,VALID,0.542969,
2009-07-26, 01:51:04,VALID,1002.58,VALID,0,VALID,79.9278,VALID,0,VALID,26.644,VALID,178,VALID,0.542969,
2009-07-26, 01:52:04,VALID,1002.6,VALID,0,VALID,79.9736,VALID,0,VALID,26.6245,VALID,278,VALID,0.168359,
2009-07-26, 01:53:04,VALID,1002.6,VALID,0,VALID,80.1719,VALID,0,VALID,26.5855,VALID,209,VALID,0.926953,
2009-07-26, 01:54:04,VALID,1002.61,VALID,0,VALID,80.3092,VALID,0,VALID,26.5855,VALID,345,VALID,0.398828,
2009-07-26, 01:55:04,VALID,1002.6,VALID,0,VALID,80.3779,VALID,0,VALID,26.5661,VALID,202,VALID,0.352734,
2009-07-26, 01:56:04,VALID,1002.56,VALID,0,VALID,80.5228,VALID,0,VALID,26.5466,VALID,182,VALID,0.586328,
2009-07-26, 01:57:04,VALID,1002.58,VALID,0,VALID,80.6068,VALID,0,VALID,26.5271,VALID,291,VALID,0.758984,
2009-07-26, 01:58:04,VALID,1002.57,VALID,0,VALID,80.7517,VALID,0,VALID,26.5251,VALID,166,VALID,0.290234,
2009-07-26, 01:59:04,VALID,1002.56,VALID,0,VALID,80.561,VALID,0.100563,VALID,26.5056,VALID,198,VALID,0.964844,
2009-07-26, 02:00:04,VALID,1002.56,VALID,0,VALID,80.355,VALID,0,VALID,26.5251,VALID,196,VALID,0.461328,
2009-07-26, 02:01:04,VALID,1002.54,VALID,0,VALID,80.4694,VALID,0.100563,VALID,26.5446,VALID,308,VALID,0.422656,
2009-07-26, 02:02:04,VALID,1002.53,VALID,0,VALID,79.943,VALID,0.100563,VALID,26.5446,VALID,266,VALID,0.889063,
2009-07-26, 02:03:04,VALID,1002.55,VALID,0,VALID,79.8515,VALID,0,VALID,26.5641,VALID,191,VALID,0.455859,
2009-07-26, 02:04:04,VALID,1002.55,VALID,0,VALID,79.7905,VALID,0.100563,VALID,26.5835,VALID,209,VALID,1.24297,
2009-07-26, 02:05:04,VALID,1002.56,VALID,0,VALID,79.8591,VALID,0.100563,VALID,26.5835,VALID,199,VALID,0.55625,
2009-07-26, 02:06:04,VALID,1002.55,VALID,0,VALID,79.821,VALID,0.100563,VALID,26.5835,VALID,198,VALID,0.550781,
2009-07-26, 02:07:04,VALID,1002.57,VALID,0,VALID,80.0956,VALID,0.100563,VALID,26.5641,VALID,151,VALID,0.0910156,
2009-07-26, 02:08:04,VALID,1002.53,VALID,0,VALID,79.9888,VALID,0.100563,VALID,26.5036,VALID,98,VALID,0.348437,
2009-07-26, 02:09:04,VALID,1002.54,VALID,0,VALID,79.882,VALID,0.100563,VALID,26.5036,VALID,257,VALID,0.3375,
2009-07-26, 02:10:04,VALID,1002.52,VALID,0,VALID,79.943,VALID,0,VALID,26.5446,VALID,311,VALID,0.441797,
2009-07-26, 02:11:04,VALID,1002.5,VALID,0,VALID,80.1185,VALID,0,VALID,26.5446,VALID,252,VALID,0.875391,
2009-07-26, 02:12:04,VALID,1002.48,VALID,0,VALID,80.3169,VALID,0.100563,VALID,26.5855,VALID,213,VALID,0.536719,
2009-07-26, 02:13:04,VALID,1002.47,VALID,0,VALID,80.027,VALID,0,VALID,26.5466,VALID,207,VALID,1.14531,
2009-07-26, 02:14:04,VALID,1002.47,VALID,0,VALID,79.9049,VALID,0,VALID,26.5466,VALID,269,VALID,0.390625,
2009-07-26, 02:15:04,VALID,1002.48,VALID,0,VALID,80.0041,VALID,0,VALID,26.5855,VALID,235,VALID,0.941016,
2009-07-26, 02:16:04,VALID,1002.49,VALID,0,VALID,80.0575,VALID,0,VALID,26.603,VALID,147,VALID,0.972266,
2009-07-26, 02:17:04,VALID,1002.48,VALID,0,VALID,80.2635,VALID,0,VALID,26.6245,VALID,290,VALID,0.326172,
2009-07-26, 02:18:04,VALID,1002.49,VALID,0,VALID,80.2177,VALID,0,VALID,26.605,VALID,263,VALID,0.790234,
2009-07-26, 02:19:04,VALID,1002.48,VALID,0,VALID,80.2863,VALID,0,VALID,26.603,VALID,246,VALID,0.256641,
2009-07-26, 02:20:04,VALID,1002.46,VALID,0,VALID,80.3397,VALID,0,VALID,26.6245,VALID,7,VALID,0.535547,
2009-07-26, 02:21:04,VALID,1002.47,VALID,0,VALID,80.4389,VALID,0,VALID,26.5835,VALID,265,VALID,0.148438,
2009-07-26, 02:22:04,VALID,1002.5,VALID,0,VALID,80.6449,VALID,0,VALID,26.5855,VALID,265,VALID,0.133594,
2009-07-26, 02:23:04,VALID,1002.49,VALID,0,VALID,80.6754,VALID,0,VALID,26.5855,VALID,225,VALID,0.258203,
2009-07-26, 02:24:04,VALID,1002.52,VALID,0,VALID,80.7822,VALID,0,VALID,26.5661,VALID,238,VALID,0.635938,
2009-07-26, 02:25:04,VALID,1002.5,VALID,0,VALID,80.7898,VALID,0,VALID,26.5466,VALID,164,VALID,0.412109,
2009-07-26, 02:26:04,VALID,1002.52,VALID,0,VALID,80.3321,VALID,0,VALID,26.5466,VALID,239,VALID,0.651953,
2009-07-26, 02:27:04,VALID,1002.51,VALID,0,VALID,80.2711,VALID,0,VALID,26.5271,VALID,207,VALID,0.728125,
2009-07-26, 02:28:04,VALID,1002.51,VALID,0,VALID,80.1185,VALID,0,VALID,26.5466,VALID,194,VALID,0.674609,
2009-07-26, 02:29:04,VALID,1002.52,VALID,0,VALID,79.8668,VALID,0,VALID,26.605,VALID,189,VALID,1.00508,
2009-07-26, 02:30:04,VALID,1002.53,VALID,0,VALID,79.7523,VALID,0,VALID,26.644,VALID,268,VALID,0.326953,
2009-07-26, 02:31:04,VALID,1002.51,VALID,0,VALID,79.6608,VALID,0,VALID,26.644,VALID,338,VALID,0.130469,
2009-07-26, 02:32:04,VALID,1002.55,VALID,0,VALID,79.615,VALID,0,VALID,26.6245,VALID,267,VALID,0.416016,
2009-07-26, 02:33:04,VALID,1002.56,VALID,0,VALID,79.7599,VALID,0.100563,VALID,26.644,VALID,233,VALID,0.422266,
2009-07-26, 02:34:04,VALID,1002.51,VALID,0,VALID,79.6303,VALID,0,VALID,26.644,VALID,206,VALID,0.310937,
2009-07-26, 02:35:04,VALID,1002.55,VALID,0,VALID,79.7294,VALID,0,VALID,26.644,VALID,243,VALID,0.675,
2009-07-26, 02:36:04,VALID,1002.59,VALID,0,VALID,80.0346,VALID,0,VALID,26.644,VALID,214,VALID,0.460547,
2009-07-26, 02:37:04,VALID,1002.54,VALID,0,VALID,80.1338,VALID,0,VALID,26.644,VALID,214,VALID,0.237109,
2009-07-26, 02:38:04,VALID,1002.54,VALID,0,VALID,79.943,VALID,0,VALID,26.605,VALID,122,VALID,0.283984,
2009-07-26, 02:39:04,VALID,1002.57,VALID,0,VALID,79.9736,VALID,0,VALID,26.6245,VALID,297,VALID,0.49375,
2009-07-26, 02:40:04,VALID,1002.49,VALID,0,VALID,79.7981,VALID,0,VALID,26.644,VALID,265,VALID,0.666797,
2009-07-26, 02:41:04,VALID,1002.53,VALID,0,VALID,79.9812,VALID,0,VALID,26.6635,VALID,182,VALID,0.371484,
2009-07-26, 02:42:04,VALID,1002.52,VALID,0,VALID,79.6913,VALID,0,VALID,26.683,VALID,248,VALID,1.28672,
2009-07-26, 02:43:04,VALID,1002.55,VALID,0,VALID,79.7828,VALID,0,VALID,26.7024,VALID,216,VALID,0.325781,
2009-07-26, 02:44:04,VALID,1002.51,VALID,0,VALID,79.7828,VALID,0,VALID,26.7024,VALID,298,VALID,0.641016,
2009-07-26, 02:45:04,VALID,1002.54,VALID,0,VALID,79.8668,VALID,0,VALID,26.683,VALID,188,VALID,0.838672,
2009-07-26, 02:46:04,VALID,1002.54,VALID,0,VALID,79.5769,VALID,0,VALID,26.683,VALID,207,VALID,0.349609,
2009-07-26, 02:47:04,VALID,1002.54,VALID,0,VALID,79.3938,VALID,0,VALID,26.683,VALID,301,VALID,0.399609,
2009-07-26, 02:48:04,VALID,1002.55,VALID,0,VALID,79.142,VALID,0,VALID,26.683,VALID,232,VALID,0.615234,
2009-07-26, 02:49:05,VALID,1002.56,VALID,0,VALID,79.3022,VALID,0,VALID,26.7024,VALID,154,VALID,0.169141,
2009-07-26, 02:50:05,VALID,1002.54,VALID,0,VALID,78.9284,VALID,0,VALID,26.7219,VALID,291,VALID,0.925391,
2009-07-26, 02:51:05,VALID,1002.48,VALID,0,VALID,78.7529,VALID,0,VALID,26.7219,VALID,213,VALID,0.289453,
2009-07-26, 02:52:05,VALID,1002.52,VALID,0,VALID,78.463,VALID,0,VALID,26.7414,VALID,280,VALID,0.534375,
2009-07-26, 02:53:05,VALID,1002.52,VALID,0,VALID,78.5622,VALID,0,VALID,26.7609,VALID,220,VALID,0.953906,
2009-07-26, 02:54:05,VALID,1002.5,VALID,0,VALID,78.5546,VALID,0,VALID,26.7804,VALID,175,VALID,0.433984,
2009-07-26, 02:55:05,VALID,1002.52,VALID,0,VALID,78.5622,VALID,0,VALID,26.7998,VALID,165,VALID,0.5,
2009-07-26, 02:56:05,VALID,1002.52,VALID,0,VALID,78.7453,VALID,0,VALID,26.8214,VALID,205,VALID,0.288672,
2009-07-26, 02:57:05,VALID,1002.54,VALID,0,VALID,78.6461,VALID,0,VALID,26.7804,VALID,205,VALID,0.169922,
2009-07-26, 02:58:05,VALID,1002.53,VALID,0,VALID,78.73,VALID,0,VALID,26.7998,VALID,258,VALID,0.832422,
2009-07-26, 02:59:05,VALID,1002.55,VALID,0,VALID,78.9284,VALID,0,VALID,26.7998,VALID,186,VALID,0.895312,
2009-07-26, 03:00:05,VALID,1002.53,VALID,0,VALID,79.3861,VALID,0,VALID,26.7804,VALID,176,VALID,0.237891,
2009-07-26, 03:01:05,VALID,1002.53,VALID,0,VALID,79.0199,VALID,0,VALID,26.7609,VALID,272,VALID,0.808984,
2009-07-26, 03:02:05,VALID,1002.53,VALID,0,VALID,78.8826,VALID,0,VALID,26.7804,VALID,217,VALID,1.19844,
2009-07-26, 03:03:05,VALID,1002.53,VALID,0,VALID,78.7606,VALID,0,VALID,26.8214,VALID,217,VALID,1.16953,
2009-07-26, 03:04:05,VALID,1002.51,VALID,0,VALID,78.2418,VALID,0,VALID,26.8193,VALID,218,VALID,0.855078,
2009-07-26, 03:05:05,VALID,1002.51,VALID,0,VALID,78.608,VALID,0,VALID,26.8388,VALID,202,VALID,0.935938,
2009-07-26, 03:06:05,VALID,1002.49,VALID,0,VALID,79.0047,VALID,0,VALID,26.8388,VALID,142,VALID,0.0386719,
2009-07-26, 03:07:05,VALID,1002.47,VALID,0,VALID,78.5775,VALID,0,VALID,26.7998,VALID,254,VALID,0.724609,
2009-07-26, 03:08:05,VALID,1002.48,VALID,0,VALID,78.7758,VALID,0,VALID,26.8193,VALID,219,VALID,0.351172,
2009-07-26, 03:09:05,VALID,1002.47,VALID,0,VALID,79.1573,VALID,0,VALID,26.7998,VALID,216,VALID,0.0738281,
2009-07-26, 03:10:05,VALID,1002.45,VALID,0,VALID,79.142,VALID,0,VALID,26.7804,VALID,216,VALID,0,
2009-07-26, 03:11:05,VALID,1002.45,VALID,0,VALID,79.2412,VALID,0.100563,VALID,26.7414,VALID,130,VALID,0.657031,
2009-07-26, 03:12:05,VALID,1002.43,VALID,0,VALID,79.3861,VALID,0,VALID,26.7589,VALID,353,VALID,0.573047,
2009-07-26, 03:13:05,VALID,1002.43,VALID,0,VALID,79.4166,VALID,0,VALID,26.7609,VALID,3,VALID,0.292578,
2009-07-26, 03:14:05,VALID,1002.43,VALID,0,VALID,79.3556,VALID,0,VALID,26.7609,VALID,308,VALID,0.732422,
2009-07-26, 03:15:05,VALID,1002.48,VALID,0,VALID,78.9589,VALID,0,VALID,26.7824,VALID,223,VALID,1.09258,
2009-07-26, 03:16:05,VALID,1002.45,VALID,0,VALID,78.5241,VALID,0,VALID,26.7199,VALID,224,VALID,0.494922,
2009-07-26, 03:17:05,VALID,1002.49,VALID,0,VALID,78.1274,VALID,0,VALID,26.7394,VALID,219,VALID,1.17461,
2009-07-26, 03:18:05,VALID,1002.47,VALID,0,VALID,77.9824,VALID,0,VALID,26.8388,VALID,98,VALID,0.44375,
2009-07-26, 03:19:05,VALID,1002.5,VALID,0,VALID,77.99,VALID,0,VALID,26.8583,VALID,205,VALID,1.13633,
2009-07-26, 03:20:05,VALID,1002.51,VALID,0,VALID,77.6467,VALID,0,VALID,26.8778,VALID,198,VALID,0.665625,
2009-07-26, 03:21:05,VALID,1002.47,VALID,0,VALID,77.8222,VALID,0,VALID,26.8563,VALID,185,VALID,0.580078,
2009-07-26, 03:22:05,VALID,1002.5,VALID,0,VALID,77.6773,VALID,0,VALID,26.9167,VALID,276,VALID,0.758984,
2009-07-26, 03:23:05,VALID,1002.46,VALID,0,VALID,77.4255,VALID,0,VALID,26.9362,VALID,187,VALID,0.570313,
2009-07-26, 03:24:05,VALID,1002.46,VALID,0,VALID,77.5933,VALID,0,VALID,26.9362,VALID,211,VALID,0.00195313,
2009-07-26, 03:25:05,VALID,1002.45,VALID,0,VALID,77.7459,VALID,0,VALID,26.9147,VALID,173,VALID,0.662891,
2009-07-26, 03:26:05,VALID,1002.43,VALID,0,VALID,77.9824,VALID,0,VALID,26.9383,VALID,198,VALID,0.921484,
2009-07-26, 03:27:05,VALID,1002.44,VALID,0,VALID,77.6544,VALID,0,VALID,26.9362,VALID,214,VALID,1.25586,
2009-07-26, 03:28:05,VALID,1002.43,VALID,0,VALID,77.2882,VALID,0.100563,VALID,26.9516,VALID,221,VALID,0.713281,
2009-07-26, 03:29:05,VALID,1002.43,VALID,0,VALID,77.395,VALID,0.100563,VALID,26.9732,VALID,219,VALID,0.220313,
2009-07-26, 03:30:05,VALID,1002.43,VALID,0,VALID,77.5171,VALID,0.100563,VALID,26.9342,VALID,210,VALID,0.759766,
2009-07-26, 03:31:05,VALID,1002.44,VALID,0,VALID,77.5247,VALID,0.100563,VALID,26.9342,VALID,205,VALID,0.437891,
2009-07-26, 03:32:05,VALID,1002.41,VALID,0,VALID,77.7688,VALID,0.100563,VALID,26.8737,VALID,214,VALID,0.304688,
2009-07-26, 03:33:05,VALID,1002.44,VALID,0,VALID,78.0511,VALID,0.100563,VALID,26.8757,VALID,211,VALID,0,
2009-07-26, 03:34:05,VALID,1002.42,VALID,0,VALID,78.2876,VALID,0.100563,VALID,26.8347,VALID,285,VALID,0.595312,
2009-07-26, 03:35:05,VALID,1002.39,VALID,0,VALID,78.5241,VALID,0,VALID,26.8388,VALID,22,VALID,0.309375,
2009-07-26, 03:36:05,VALID,1002.41,VALID,0,VALID,78.6385,VALID,0.100563,VALID,26.7978,VALID,171,VALID,0.627734,
2009-07-26, 03:37:05,VALID,1002.42,VALID,0,VALID,78.6309,VALID,0.100563,VALID,26.7783,VALID,104,VALID,0.264062,
2009-07-26, 03:38:05,VALID,1002.42,VALID,0,VALID,77.99,VALID,0.100563,VALID,26.7783,VALID,205,VALID,0.391016,
2009-07-26, 03:39:05,VALID,1002.42,VALID,0,VALID,78.0968,VALID,0.100563,VALID,26.7978,VALID,175,VALID,0.548828,
2009-07-26, 03:40:05,VALID,1002.39,VALID,0,VALID,78.4096,VALID,0.100563,VALID,26.7978,VALID,179,VALID,0.166406,
2009-07-26, 03:41:05,VALID,1002.41,VALID,0,VALID,78.2571,VALID,0.100563,VALID,26.7783,VALID,356,VALID,0.323047,
2009-07-26, 03:42:05,VALID,1002.39,VALID,0,VALID,78.1274,VALID,0.100563,VALID,26.7589,VALID,195,VALID,0.4875,
2009-07-26, 03:43:05,VALID,1002.4,VALID,0,VALID,78.463,VALID,0,VALID,26.7629,VALID,172,VALID,0.260938,